Charles City, IA

3:59 PM CST on November 21, 2017 (GMT -0600)
Charles City Municipal

Weather History for KCCY - November, 2013

Change the Weather History Date:

Saturday, November 9, 2013

  Actual Average Record
Temperature  
Mean Temperature 44 °F -  
Max Temperature 50 °F 45 °F 73 °F (1999)
Min Temperature 39 °F 29 °F 14 °F (1991)
Degree Days  
Heating Degree Days 20    
Moisture  
Dew Point 36 °F    
Average Humidity 72    
Maximum Humidity 87    
Minimum Humidity 54    
Precipitation  
Precipitation 0.00 in - - ()
Sea Level Pressure  
Sea Level Pressure 29.91 in    
Wind  
Wind Speed 16 mph (West)    
Max Wind Speed 26 mph    
Max Gust Speed 36 mph    
Visibility 10 miles    
Events      
Averages and records for this station are not official NWS values.
T = Trace of Precipitation, MM = Missing Value Source: NWS Daily Summary

Daily Weather History Graph

Daily Weather History Graph

Search for Another Location

Airport or City:

Trip Planner

Search our weather history database for the weather conditions in past years. The results will help you decide how hot, cold, wet, or windy it might be!

Date:

Astronomy

Nov. 09, 2013 Rise Set
Actual Time 6:55 AM CST 4:52 PM CST
Civil Twilight 6:25 AM CST 5:22 PM CST
Nautical Twilight 5:51 AM CST 5:56 PM CST
Astronomical Twilight 5:18 AM CST 6:29 PM CST
Moon 12:31 PM CST (11/9) 11:25 PM CST (11/9)
Length of Visible Light 10h 57m
Length of Day
9h 56m
Waxing Crescent, 44% of the Moon is Illuminated
Nov 9
Waxing Crescent
Nov 9
First Quarter
Nov 17
Full
Nov 25
Last Quarter
Dec 2
New

Hourly Weather History & Observations

Time (CST) Temp. Windchill Dew Point Humidity Pressure Visibility Wind Dir Wind Speed Gust Speed Precip Events Conditions
12:15 AM 46.4 °F 40.4 °F 37.4 °F 71% 29.74 in 10.0 mi West 13.8 mph 19.6 mph N/A   Clear
12:35 AM 46.4 °F 40.4 °F 37.4 °F 71% 29.74 in 10.0 mi WSW 13.8 mph 19.6 mph N/A   Clear
12:55 AM 44.6 °F 38.1 °F 37.4 °F 76% 29.74 in 10.0 mi WSW 13.8 mph - N/A   Clear
1:15 AM 44.6 °F 38.4 °F 37.4 °F 76% 29.75 in 10.0 mi West 12.7 mph 19.6 mph N/A   Clear
1:35 AM 44.6 °F 38.4 °F 37.4 °F 76% 29.75 in 10.0 mi WSW 12.7 mph - N/A   Clear
1:55 AM 42.8 °F 35.1 °F 37.4 °F 81% 29.75 in - West 16.1 mph - N/A   Clear
2:15 AM 42.8 °F 35.4 °F 37.4 °F 81% 29.76 in 10.0 mi West 15.0 mph - N/A   Partly Cloudy
2:35 AM 42.8 °F 36.2 °F 37.4 °F 81% 29.77 in 10.0 mi WSW 12.7 mph 20.7 mph N/A   Mostly Cloudy
2:55 AM 42.8 °F 35.8 °F 37.4 °F 81% 29.77 in 10.0 mi West 13.8 mph - N/A   Overcast
3:15 AM 44.6 °F 37.8 °F 37.4 °F 76% 29.78 in 10.0 mi WSW 15.0 mph - N/A   Overcast
3:35 AM 44.6 °F 38.1 °F 39.2 °F 81% 29.78 in 10.0 mi West 13.8 mph - N/A   Overcast
3:55 AM 44.6 °F 37.4 °F 37.4 °F 76% 29.80 in 10.0 mi WSW 16.1 mph - N/A   Overcast
4:15 AM 42.8 °F 35.4 °F 37.4 °F 81% 29.81 in 10.0 mi WSW 15.0 mph - N/A   Mostly Cloudy
4:35 AM 41.0 °F 33.1 °F 37.4 °F 87% 29.82 in 10.0 mi WSW 15.0 mph - N/A   Partly Cloudy
4:55 AM 41.0 °F 34.3 °F 35.6 °F 81% 29.82 in 10.0 mi WSW 11.5 mph 19.6 mph N/A   Clear
5:15 AM 41.0 °F 33.9 °F 35.6 °F 81% 29.82 in 10.0 mi WSW 12.7 mph - N/A   Clear
5:35 AM 41.0 °F 33.9 °F 35.6 °F 81% 29.83 in 10.0 mi WSW 12.7 mph - N/A   Clear
5:55 AM 41.0 °F 33.5 °F 35.6 °F 81% 29.84 in 10.0 mi West 13.8 mph - N/A   Clear
6:15 AM 39.2 °F 32.0 °F 33.8 °F 81% 29.85 in 10.0 mi West 11.5 mph - N/A   Clear
6:35 AM 39.2 °F 31.6 °F 33.8 °F 81% 29.86 in 10.0 mi West 12.7 mph - N/A   Clear
6:55 AM 41.0 °F 33.5 °F 33.8 °F 76% 29.87 in 10.0 mi West 13.8 mph - N/A   Mostly Cloudy
7:15 AM 41.0 °F 33.5 °F 33.8 °F 76% 29.87 in 10.0 mi West 13.8 mph 19.6 mph N/A   Overcast
7:35 AM 41.0 °F 33.5 °F 35.6 °F 81% 29.88 in 10.0 mi West 13.8 mph - N/A   Overcast
7:55 AM 41.0 °F 33.1 °F 35.6 °F 81% 29.90 in 10.0 mi West 15.0 mph - N/A   Overcast
8:15 AM 41.0 °F 32.5 °F 35.6 °F 81% 29.90 in 10.0 mi West 17.3 mph - N/A   Overcast
8:35 AM 42.8 °F 35.4 °F 35.6 °F 76% 29.91 in 10.0 mi West 15.0 mph - N/A   Overcast
8:55 AM 42.8 °F 35.4 °F 35.6 °F 76% 29.92 in 10.0 mi West 15.0 mph - N/A   Overcast
9:15 AM 44.6 °F 37.8 °F 37.4 °F 76% 29.92 in 10.0 mi West 15.0 mph - N/A   Mostly Cloudy
9:35 AM 46.4 °F 39.2 °F 37.4 °F 71% 29.93 in 10.0 mi WNW 18.4 mph 25.3 mph N/A   Clear
9:55 AM 48.2 °F - 37.4 °F 66% 29.93 in 10.0 mi WNW 24.2 mph - N/A   Clear
10:15 AM 48.2 °F - 37.4 °F 66% 29.94 in 10.0 mi WNW 21.9 mph 31.1 mph N/A   Partly Cloudy
10:35 AM 48.2 °F - 37.4 °F 66% 29.96 in 10.0 mi WNW 25.3 mph 34.5 mph N/A   Mostly Cloudy
10:55 AM 46.4 °F 38.5 °F 37.4 °F 71% 29.97 in 10.0 mi WNW 21.9 mph 35.7 mph N/A   Overcast
11:15 AM 46.4 °F 39.0 °F 37.4 °F 71% 29.98 in 10.0 mi WNW 19.6 mph 26.5 mph N/A   Overcast
11:35 AM 46.4 °F 38.7 °F 37.4 °F 71% 29.98 in 10.0 mi WNW 20.7 mph 28.8 mph N/A   Overcast
11:55 AM 48.2 °F - 37.4 °F 66% 29.98 in 10.0 mi WNW 26.5 mph 34.5 mph N/A   Overcast
12:15 PM 46.4 °F 37.9 °F 35.6 °F 66% 29.99 in 10.0 mi WNW 25.3 mph 33.4 mph N/A   Overcast
12:35 PM 46.4 °F 38.7 °F 35.6 °F 66% 30.00 in 10.0 mi WNW 20.7 mph 32.2 mph N/A   Mostly Cloudy
12:55 PM 48.2 °F - 35.6 °F 62% 29.99 in 10.0 mi WNW 18.4 mph 31.1 mph N/A   Partly Cloudy
1:15 PM 48.2 °F - 35.6 °F 62% 29.99 in 10.0 mi WNW 20.7 mph 28.8 mph N/A   Partly Cloudy
1:35 PM 50.0 °F - 35.6 °F 58% 29.99 in 10.0 mi WNW 23.0 mph 33.4 mph N/A   Clear
1:55 PM 50.0 °F - 33.8 °F 54% 30.01 in 10.0 mi WNW 23.0 mph 32.2 mph N/A   Clear
2:15 PM 50.0 °F - 35.6 °F 58% 30.01 in 10.0 mi WNW 20.7 mph 31.1 mph N/A   Scattered Clouds
2:35 PM 48.2 °F - 35.6 °F 62% 30.02 in 10.0 mi WNW 21.9 mph 29.9 mph N/A   Mostly Cloudy
2:55 PM 48.2 °F - 33.8 °F 58% 30.02 in 10.0 mi WNW 16.1 mph 27.6 mph N/A   Scattered Clouds
3:15 PM 48.2 °F - 35.6 °F 62% 30.03 in 10.0 mi WNW 18.4 mph 24.2 mph N/A   Clear
3:35 PM 46.4 °F 38.7 °F 33.8 °F 62% 30.04 in 10.0 mi NW 20.7 mph 27.6 mph N/A   Scattered Clouds
3:55 PM 46.4 °F 39.8 °F 35.6 °F 66% 30.05 in 10.0 mi WNW 16.1 mph 27.6 mph N/A   Mostly Cloudy
4:15 PM 46.4 °F 38.5 °F 35.6 °F 66% 30.06 in 10.0 mi NW 21.9 mph - N/A   Mostly Cloudy
4:35 PM 44.6 °F 36.9 °F 33.8 °F 66% 30.07 in 10.0 mi WNW 18.4 mph 24.2 mph N/A   Scattered Clouds
4:55 PM 44.6 °F 37.2 °F 33.8 °F 66% 30.08 in 10.0 mi WNW 17.3 mph - N/A   Mostly Cloudy
5:15 PM 42.8 °F 35.8 °F 33.8 °F 70% 30.09 in 10.0 mi WNW 13.8 mph 19.6 mph N/A   Scattered Clouds
5:35 PM 42.8 °F 35.8 °F 33.8 °F 70% 30.10 in 10.0 mi WNW 13.8 mph 20.7 mph N/A   Mostly Cloudy
5:55 PM 41.0 °F 32.5 °F 32.0 °F 70% 30.11 in 10.0 mi NW 17.3 mph 23.0 mph N/A   Scattered Clouds